Regional Weather Roundup
Issued by NWS

Home | Current Version | Previous Version | Text Only | Print | Product List | Glossary On
Versions: 1 2 3 4 5 6 7 8 9 10 11 12 13 14 15 16 17 18 19 20 21 22 23 24 25 26 27 28 29 30 31 32 33 34 35 36 37 38 39 40 41 42 43 44 45 46 47 48 49 50
000
ASUS43 KDTX 050710
RWRMI
MICHIGAN HOURLY REGIONAL WEATHER ROUNDUP
NATIONAL WEATHER SERVICE DETROIT/PONTIAC MI
300 AM EDT WED AUG 05 2015

NOTE: "FAIR" INDICATES FEW OR NO CLOUDS BELOW 12,000 FEET WITH NO
SIGNIFICANT WEATHER AND/OR OBSTRUCTION TO VISIBILITY.

MIZ047>049-052>055-059>063-066>070-074>076-081>083-050800-
SOUTHEAST LOWER MICHIGAN

CITY           SKY/WX    TMP DP  RH WIND       PRES   REMARKS
ADRIAN         CLEAR     59  54  83 N3        30.02S
ALMA           CLEAR     54  53  98 CALM      30.03S
ANN ARBOR      CLEAR     62  54  74 NW6       30.01S
BAD AXE        MOCLDY    57  57  98 CALM      30.00S
CARO           CLEAR     59  57  91 W3        30.00S
DETROIT CITY   CLEAR     65  54  67 NW5       29.99S
DETROIT        PTCLDY    62  55  77 NW7       30.00S
FLINT          CLEAR     59  54  83 NW6       30.01S
GROSSE ILE     CLEAR     64  55  72 NW5       29.99S
HILLSDALE      CLEAR     60  58  96 CALM      30.03F
HOWELL         CLEAR     56  53  91 W3        30.02S

CITY           SKY/WX    TMP DP  RH WIND       PRES   REMARKS
JACKSON        CLEAR     58  55  90 CALM      30.02F
LAMBERTVILLE   CLEAR     62  56  82 CALM      30.02R
LANSING        CLEAR     57  54  89 CALM      30.03S
LAPEER         FAIR      59  56  92 NW3       30.00S
MASON          CLEAR     56  53  89 CALM      30.03S
MONROE         CLEAR     60  56  87 CALM      30.00S
MT. CLEMENS    CLEAR     62  59  93 W6        29.97S
PONTIAC        CLEAR     61  55  81 W6        30.00S
PORT HOPE        N/A     58  57  97 W5        29.98S
PORT HURON     FOG       55  55 100 CALM      29.98S VSB 1/2
TRI CITIES     CLEAR     60  55  83 NW6       30.02S
MIDLAND        FAIR      55  53  95 CALM      30.01S
TROY           FAIR      65  55  70 NW6       30.02S
SAGINAW HB     CLEAR     59  55  88 NW5       30.01S
$$
MIZ043>046-050>051-056>058-064>065-071>073-077>080-050800-
SOUTHWEST LOWER MICHIGAN

CITY           SKY/WX    TMP DP  RH WIND       PRES   REMARKS
BATTLE CREEK     N/A    N/A N/A N/A MISG      30.03F
BENTON HARBOR  CLEAR     57  55  93 CALM      30.02F
BIG RAPIDS     MOCLDY    54  53  95 CALM      30.04S
COLDWATER      CLEAR     56  55  97 CALM      30.02F
FREMONT        FAIR      56  56  98 CALM      30.03S
HOLLAND        PTCLDY    60  56  86 CALM      30.03F
GRAND RAPIDS   PTCLDY    59  56  89 CALM      30.04S
IONIA          CLOUDY    61  56  83 CALM      30.02F
KALAMAZOO      CLEAR     60  55  83 CALM      30.03F
LUDINGTON      MOCLDY    58  56  92 CALM      30.04S
MARSHALL       CLEAR     56  55  95 CALM      30.02F
MOUNT PLEASANT CLEAR     58  55  89 CALM      30.02S
MUSKEGON       CLEAR     63  57  81 CALM      30.03F
SOUTH HAVEN    CLEAR     57  55  93 CALM      30.02F
$$
MIZ016>042-050800-
NORTHERN LOWER MICHIGAN

CITY           SKY/WX    TMP DP  RH WIND       PRES   REMARKS
ALPENA         CLEAR     54  49  83 NW6       30.01S
BEAVER ISLAND  CLEAR     57  50  77 NW5       30.04S
BELLAIRE       CLEAR     54  52  93 CALM      30.04S
CADILLAC       CLEAR     51  51  97 CALM      30.04S
CHARLEVOIX     CLEAR     59  50  74 NW7       30.06F
FRANKFORT      CLEAR     54  53  96 CALM      30.04F
GAYLORD        MOCLDY    56  54  93 CALM      30.03S
GRAYLING       CLEAR     51  51  98 CALM      30.04S FOG
HARBOR SPRINGS CLEAR     53  49  87 N3        30.03S
HOUGHTON LAKE  PTCLDY    55  53  93 NW6       30.04S
MANISTEE       CLEAR     54  48  82 E3        30.05S
OSCODA         CLEAR     53  51  95 NW5       30.00S
PELLSTON       CLEAR     47  46  97 CALM      30.03S
ROGERS CITY    CLEAR     54  49  86 W5        30.02S
TRAVERSE CITY  CLEAR     54  52  93 CALM      30.03S
$$
MIZ007>008-015-050800-
EASTERN UPPER MICHIGAN

CITY           SKY/WX    TMP DP  RH WIND       PRES   REMARKS
KINROSS        CLEAR     48  48 100 W7        30.01S
MACKINAC ISLAN CLEAR     55  47  76 W9        30.02S
NEWBERRY       PTCLDY    50  49  97 W7        30.03R
S. S. MARIE    MOCLDY    54  51  90 NW7       30.00R
MUNISING         N/A     54  50  86 S5        30.04S
$$
MIZ004>006-011>014-085-050800-
CENTRAL UPPER MICHIGAN

CITY           SKY/WX    TMP DP  RH WIND       PRES   REMARKS
MANISTIQUE     CLEAR     50  48  93 NW7       30.04R
ESCANABA       CLEAR     48  46  93 W5        30.06S
MENOMINEE      CLEAR     55  50  82 N5        30.05S
SAWYER-GWINN   CLEAR     45  43  94 CALM      30.06S
$$
MIZ001>003-009>011-084-050800-
WESTERN UPPER MICHIGAN

CITY           SKY/WX    TMP DP  RH WIND       PRES   REMARKS
IRON MOUNTAIN  PTCLDY    48  47  96 CALM      30.07S FOG
HOUGHTON       CLEAR     51  48  89 NW9       30.06S
COPPER HARBOR    N/A     57  50  77 NW7       30.04S
IRONWOOD       CLEAR     45  45 100 CALM      30.07R
$$

ABBREVIATIONS USED IN REMARKS
   TC - TEMPERATURE IN CELSIUS
  WCI - WIND CHILL INDEX
   HX - HEAT INDEX
  VSB - VISIBILITY




USA.gov is the U.S. government's official web portal to all federal, state and local government web resources and services.